When you browse on this site, cookies collect data to enhance your experience and personalize the content and advertising you see.
Visit our Privacy Policy to learn more. By continuing to use the site, you agree to this use of cookies and data.
  • In Österreich
  • Länderverzeichnis
  • Für 7 Tage
  • Wassertemperatur
  • Wetterkarte
  • News
  • Widgets
  • user-avatar
    Anmelden

    Stündliche Wetter Stow

    Heute, 18 August, Sonntag

    Zeit Temperatur Niederschläge Wind Luftdruck Luftfeuchtigkeit
    00:00 +21°C° 0.1 mm 2 m/S 731 mmHg 92%
    01:00 +21°C° 0 mm 2 m/S 731 mmHg 92%
    02:00 +21°C° 0.8 mm 2 m/S 731 mmHg 93%
    03:00 +21°C° 0.8 mm 2 m/S 731 mmHg 93%
    04:00 +21°C° 0.8 mm 2 m/S 731 mmHg 93%
    05:00 +21°C° 0 mm 2 m/S 731 mmHg 93%
    06:00 +21°C° 0 mm 2 m/S 731 mmHg 93%
    07:00 +21°C° 0 mm 2 m/S 731 mmHg 93%
    08:00 +24°C° 0.2 mm 3 m/S 732 mmHg 90%
    09:00 +25°C° 0.2 mm 4 m/S 732 mmHg 88%
    10:00 +26°C° 0.2 mm 5 m/S 732 mmHg 85%
    11:00 +28°C° 0.6 mm 5 m/S 732 mmHg 80%
    12:00 +29°C° 0.6 mm 5 m/S 732 mmHg 75%
    13:00 +30°C° 0.6 mm 5 m/S 732 mmHg 70%
    14:00 +30°C° 0.6 mm 5 m/S 731 mmHg 70%
    15:00 +30°C° 0.6 mm 4 m/S 731 mmHg 69%
    16:00 +32°C° 0.6 mm 4 m/S 731 mmHg 69%
    17:00 +29°C° 0.1 mm 3 m/S 730 mmHg 72%
    18:00 +28°C° 0.1 mm 3 m/S 730 mmHg 76%
    19:00 +27°C° 0.1 mm 3 m/S 730 mmHg 79%
    20:00 +26°C° 0.4 mm 3 m/S 730 mmHg 82%
    21:00 +25°C° 0.4 mm 3 m/S 731 mmHg 84%
    22:00 +24°C° 0.4 mm 3 m/S 731 mmHg 87%
    23:00 +24°C° 0.4 mm 3 m/S 731 mmHg 88%

    Morgen, 19 August, Montag

    Zeit Temperatur Niederschläge Wind Luftdruck Luftfeuchtigkeit
    00:00 +24°C° 0.4 mm 2 m/S 731 mmHg 89%
    01:00 +23°C° 0.4 mm 2 m/S 731 mmHg 89%
    02:00 +23°C° 0 mm 2 m/S 731 mmHg 88%
    03:00 +23°C° 0 mm 2 m/S 731 mmHg 86%
    04:00 +23°C° 0 mm 2 m/S 731 mmHg 85%
    05:00 +22°C° 0 mm 3 m/S 731 mmHg 85%
    06:00 +22°C° 0 mm 3 m/S 731 mmHg 86%
    07:00 +21°C° 0 mm 3 m/S 731 mmHg 86%
    08:00 +24°C° 0 mm 3 m/S 732 mmHg 83%
    09:00 +26°C° 0 mm 4 m/S 732 mmHg 80%
    10:00 +28°C° 0 mm 4 m/S 732 mmHg 77%
    11:00 +28°C° 0.3 mm 4 m/S 732 mmHg 76%
    12:00 +29°C° 0.3 mm 4 m/S 732 mmHg 75%
    13:00 +30°C° 0.3 mm 4 m/S 732 mmHg 74%
    14:00 +29°C° 1.6 mm 4 m/S 732 mmHg 76%
    15:00 +29°C° 1.6 mm 3 m/S 732 mmHg 78%
    16:00 +29°C° 1.6 mm 3 m/S 731 mmHg 79%
    17:00 +28°C° 0.3 mm 3 m/S 732 mmHg 81%
    18:00 +27°C° 0.3 mm 2 m/S 732 mmHg 83%
    19:00 +26°C° 0.3 mm 1 m/S 732 mmHg 85%
    20:00 +25°C° 0 mm 1 m/S 732 mmHg 86%
    21:00 +25°C° 0 mm 1 m/S 732 mmHg 87%
    22:00 +22°C° 0 mm 0 m/S 732 mmHg 89%
    23:00 +21°C° 0 mm 0 m/S 732 mmHg 90%

    übermorgen, 20 August, Dienstag

    Zeit Temperatur Niederschläge Wind Luftdruck Luftfeuchtigkeit
    00:00 +21°C° 0 mm 0 m/S 732 mmHg 91%
    01:00 +21°C° 0 mm 0 m/S 732 mmHg 92%
    02:00 +22°C° 0 mm 1 m/S 732 mmHg 92%
    03:00 +22°C° 0 mm 1 m/S 732 mmHg 93%
    04:00 +22°C° 0 mm 1 m/S 732 mmHg 93%
    05:00 +22°C° 0 mm 1 m/S 733 mmHg 92%
    06:00 +23°C° 0 mm 1 m/S 733 mmHg 92%
    07:00 +21°C° 0 mm 0 m/S 733 mmHg 91%
    08:00 +23°C° 0 mm 0 m/S 733 mmHg 85%
    09:00 +25°C° 0 mm 0 m/S 734 mmHg 79%
    10:00 +27°C° 0 mm 0 m/S 734 mmHg 74%
    11:00 +29°C° 0 mm 1 m/S 733 mmHg 70%
    12:00 +30°C° 0 mm 1 m/S 733 mmHg 67%
    13:00 +31°C° 0 mm 2 m/S 733 mmHg 64%
    14:00 +31°C° 0.4 mm 2 m/S 732 mmHg 67%
    15:00 +30°C° 0.4 mm 2 m/S 732 mmHg 71%
    16:00 +30°C° 0.4 mm 2 m/S 732 mmHg 74%
    17:00 +29°C° 0.2 mm 2 m/S 732 mmHg 78%
    18:00 +27°C° 0.2 mm 2 m/S 731 mmHg 82%
    19:00 +26°C° 0.2 mm 1 m/S 731 mmHg 87%
    20:00 +25°C° 0 mm 1 m/S 731 mmHg 88%
    21:00 +24°C° 0 mm 1 m/S 731 mmHg 90%
    22:00 +21°C° 0 mm 0 m/S 731 mmHg 91%
    23:00 +23°C° 0 mm 1 m/S 731 mmHg 92%

    21 August, Mittwoch

    Zeit Temperatur Niederschläge Wind Luftdruck Luftfeuchtigkeit
    00:00 +23°C° 0 mm 1 m/S 731 mmHg 93%
    01:00 +23°C° 0 mm 1 m/S 731 mmHg 94%
    02:00 +23°C° 0 mm 2 m/S 731 mmHg 94%
    03:00 +23°C° 0 mm 2 m/S 731 mmHg 95%
    04:00 +23°C° 0 mm 2 m/S 730 mmHg 96%
    05:00 +24°C° 0 mm 2 m/S 730 mmHg 95%
    06:00 +24°C° 0 mm 3 m/S 730 mmHg 94%
    07:00 +25°C° 0 mm 3 m/S 730 mmHg 94%
    08:00 +26°C° 0.2 mm 4 m/S 730 mmHg 89%
    09:00 +28°C° 0.2 mm 5 m/S 730 mmHg 85%
    10:00 +29°C° 0.2 mm 5 m/S 730 mmHg 80%
    11:00 +30°C° 0.1 mm 6 m/S 730 mmHg 77%
    12:00 +32°C° 0.1 mm 6 m/S 730 mmHg 73%
    13:00 +33°C° 0.1 mm 6 m/S 729 mmHg 69%
    14:00 +32°C° 1.4 mm 6 m/S 729 mmHg 74%
    15:00 +30°C° 1.4 mm 5 m/S 729 mmHg 78%
    16:00 +30°C° 1.4 mm 5 m/S 729 mmHg 83%
    17:00 +28°C° 0.1 mm 4 m/S 729 mmHg 83%
    18:00 +27°C° 0.1 mm 4 m/S 729 mmHg 83%
    19:00 +25°C° 0.1 mm 3 m/S 730 mmHg 83%
    20:00 +24°C° 0 mm 3 m/S 730 mmHg 86%
    21:00 +23°C° 0 mm 2 m/S 730 mmHg 90%
    22:00 +21°C° 0 mm 2 m/S 730 mmHg 93%
    23:00 +20°C° 0 mm 2 m/S 730 mmHg 92%

    22 August, Donnerstag

    Zeit Temperatur Niederschläge Wind Luftdruck Luftfeuchtigkeit
    00:00 +19°C° 0 mm 2 m/S 731 mmHg 90%
    01:00 +18°C° 0 mm 2 m/S 731 mmHg 88%
    02:00 +17°C° 0 mm 2 m/S 731 mmHg 86%
    03:00 +16°C° 0 mm 2 m/S 731 mmHg 84%
    04:00 +15°C° 0 mm 2 m/S 731 mmHg 82%
    05:00 +15°C° 0 mm 2 m/S 731 mmHg 82%
    06:00 +15°C° 0 mm 2 m/S 732 mmHg 82%
    07:00 +15°C° 0 mm 2 m/S 732 mmHg 82%
    08:00 +17°C° 0 mm 2 m/S 732 mmHg 78%
    09:00 +18°C° 0 mm 2 m/S 733 mmHg 74%
    10:00 +19°C° 0 mm 2 m/S 733 mmHg 69%
    11:00 +20°C° 0 mm 2 m/S 733 mmHg 66%
    12:00 +21°C° 0 mm 3 m/S 733 mmHg 63%
    13:00 +21°C° 0 mm 3 m/S 733 mmHg 61%
    14:00 +21°C° 0 mm 3 m/S 733 mmHg 60%
    15:00 +21°C° 0 mm 4 m/S 733 mmHg 59%
    16:00 +21°C° 0 mm 4 m/S 733 mmHg 58%
    17:00 +19°C° 0 mm 3 m/S 733 mmHg 63%
    18:00 +18°C° 0 mm 3 m/S 733 mmHg 67%
    19:00 +16°C° 0 mm 2 m/S 732 mmHg 72%
    20:00 +15°C° 0 mm 2 m/S 733 mmHg 72%
    21:00 +14°C° 0 mm 1 m/S 733 mmHg 73%
    22:00 +13°C° 0 mm 1 m/S 733 mmHg 74%
    23:00 +13°C° 0 mm 1 m/S 733 mmHg 75%

    23 August, Freitag

    Zeit Temperatur Niederschläge Wind Luftdruck Luftfeuchtigkeit
    00:00 +12°C° 0 mm 0 m/S 733 mmHg 77%
    01:00 +11°C° 0 mm 0 m/S 733 mmHg 78%
    02:00 +11°C° 0 mm 0 m/S 733 mmHg 79%
    03:00 +11°C° 0 mm 0 m/S 733 mmHg 80%
    04:00 +11°C° 0 mm 0 m/S 733 mmHg 81%
    05:00 +12°C° 0 mm 1 m/S 734 mmHg 81%
    06:00 +13°C° 0 mm 1 m/S 734 mmHg 80%
    07:00 +14°C° 0 mm 1 m/S 734 mmHg 79%
    08:00 +16°C° 0 mm 1 m/S 734 mmHg 73%
    09:00 +19°C° 0 mm 1 m/S 735 mmHg 68%
    10:00 +21°C° 0 mm 1 m/S 735 mmHg 62%
    11:00 +21°C° 0 mm 1 m/S 735 mmHg 60%
    12:00 +22°C° 0 mm 1 m/S 734 mmHg 58%
    13:00 +23°C° 0 mm 2 m/S 734 mmHg 56%
    14:00 +23°C° 0 mm 2 m/S 734 mmHg 58%
    15:00 +23°C° 0 mm 2 m/S 734 mmHg 60%
    16:00 +23°C° 0 mm 2 m/S 733 mmHg 62%
    17:00 +20°C° 0 mm 2 m/S 733 mmHg 67%
    18:00 +19°C° 0 mm 2 m/S 733 mmHg 73%
    19:00 +18°C° 0 mm 1 m/S 733 mmHg 79%
    20:00 +16°C° 0 mm 1 m/S 733 mmHg 81%
    21:00 +15°C° 0 mm 1 m/S 733 mmHg 83%
    22:00 +14°C° 0 mm 1 m/S 734 mmHg 85%
    23:00 +14°C° 0 mm 1 m/S 734 mmHg 86%
    Mehr zeigen